[[{"header":{"parameterUnit":"m.s-1","parameterCategory":1,"la1":30.2991,"la2":30.254,"lo1":-89.0895,"lo2":-89.0444,"dy":0.0017,"dx":0.0017,"nx":28,"ny":28,"refTime":"2024-07-04T21:00:00:Z","depth":0,"parameterNumber":2,"parameterNumberName":"U-component_of_WINDS"},"data":[0,0,0,0,0,0,0,0,0,0,0,0,0,0,0,0,0,0,0,0,0,0,0,0,0,0,0,0,0,0,0,0,0,0,0,0,0,0,0,0,0,0,0,0,0,0,0,0,0,0,0,0,0,0,0,0,0,0,0.2649,0.2649,0,0.2646,0.2646,0.2646,0.2623,0.2622,0.2622,0.2621,0.2619,0.2619,0.262,0,0,0,0,0,0,0,0,0,0,0,0,0,0.2638,0.2638,0.2649,0.2649,0.2649,0.2646,0.2646,0.2646,0.2623,0.2622,0.2622,0.2621,0.2619,0.2619,0.262,0,0,0,0,0,0,0,0,0,0,0,0,0,0.2639,0.2638,0.2649,0.2638,0.2637,0.2646,0.2646,0.2646,0.2623,0.2622,0.2622,0.2621,0.2618,0.2619,0.262,0.264,0,0,0.2622,0.2622,0,0,0,0,0,0,0,0,0.2639,0.264,0.2639,0.2638,0.2637,0.2634,0.2641,0.2644,0.2623,0.2628,0.2621,0.262,0.2625,0.2625,0.2626,0.264,0.264,0.2622,0.2622,0.2623,0.2623,0,0,0,0,0,0,0,0.2639,0.264,0.2648,0.2639,0.2638,0.2633,0.2632,0.2641,0.2631,0.2628,0.2626,0.2626,0.2624,0.2625,0.2626,0.264,0.2622,0.2622,0.2623,0.2623,0.2672,0.2673,0,0,0,0,0,0,0.2641,0.264,0.2648,0.2648,0.2636,0.2634,0.2633,0.2636,0.2631,0.2629,0.2627,0.2625,0.2625,0.2625,0.2625,0.265,0.2623,0.2623,0.2624,0.2671,0.2672,0.2673,0,0,0,0,0,0,0.264,0.2642,0.2648,0.2643,0.2644,0.2635,0.2638,0.2636,0.2638,0.263,0.2628,0.263,0.2624,0.2624,0.2637,0.265,0.2623,0.2624,0.267,0.2672,0.2673,0.2699,0,0,0,0,0,0,0.264,0.2642,0.2649,0.2644,0.2644,0.266,0.2639,0.2637,0.2639,0.2636,0.2633,0.2631,0.2623,0.2636,0.2638,0.265,0.2625,0.2669,0.2671,0.2672,0.2697,0.2702,0.2705,0,0,0,0,0,0.264,0.2657,0.265,0.2651,0.2654,0.2661,0.2661,0.2651,0.264,0.2648,0.2643,0.2631,0.2648,0.2638,0.2639,0.2652,0.2668,0.267,0.2672,0.2696,0.2701,0.2705,0,0,0,0,0,0,0.2665,0.2656,0.2648,0.2664,0.2663,0.2657,0.2666,0.2656,0.2659,0.2657,0.2645,0.2644,0.2659,0.2656,0.2645,0.2672,0.2656,0.2658,0.2673,0.2678,0.2682,0.2683,0.2625,0,0,0,0,0,0.2672,0.2678,0.267,0.2685,0.2685,0.2676,0.2678,0.2671,0.267,0.2669,0.2665,0.2665,0.267,0.2674,0.2678,0.2696,0.2696,0.2706,0.271,0.2713,0.2716,0.2726,0.2731,0.268,0.268,0.268,0,0,0.2687,0.2683,0.2688,0.269,0.2688,0.2696,0.2676,0.2684,0.2689,0.2671,0.2682,0.2679,0.2678,0.2694,0.2701,0.2693,0.273,0.2716,0.2718,0.2719,0.2729,0.2734,0.2738,0.2681,0.2681,0.2681,0,0,0.2719,0.2716,0.2729,0.2727,0.2725,0.2719,0.2722,0.2717,0.2714,0.2725,0.2712,0.2718,0.2726,0.2726,0.2727,0.2759,0.2749,0.276,0.2781,0.2791,0.2795,0.2799,0.2811,0.2816,0.2763,0.2763,0.2763,0,0.2739,0.2749,0.2736,0.2746,0.2747,0.273,0.2743,0.2742,0.2742,0.2743,0.2734,0.2744,0.2742,0.2758,0.2766,0.2767,0.2771,0.2761,0.2796,0.2799,0.2802,0.2814,0.2819,0.2764,0.2764,0.2764,0.2764,0,0.2773,0.278,0.2791,0.279,0.2793,0.2804,0.2794,0.2797,0.2789,0.2784,0.2796,0.2793,0.2796,0.2799,0.2791,0.2814,0.2809,0.2798,0.2782,0.2809,0.282,0.2824,0.2766,0.2766,0.2765,0.2765,0,0,0.2823,0.2815,0.2819,0.2819,0.2815,0.282,0.283,0.2833,0.2837,0.2837,0.2846,0.2853,0.2843,0.2844,0.2836,0.2845,0.2871,0.2832,0.2832,0.2841,0.2897,0.2907,0.2913,0.2864,0.2864,0.2865,0.2898,0,0.2854,0.2871,0.286,0.2879,0.2886,0.2869,0.2878,0.2877,0.2872,0.2877,0.2871,0.2877,0.2862,0.2863,0.2871,0.2866,0.2882,0.2863,0.2873,0.2873,0.2875,0.2918,0.2928,0.296,0.2902,0.2903,0.2903,0,0.2894,0.2895,0.2915,0.291,0.2912,0.292,0.2923,0.2927,0.2925,0.2921,0.2922,0.2912,0.2922,0.2904,0.2919,0.2906,0.2909,0.2907,0.2908,0.291,0.2891,0.2923,0.2969,0.2975,0.2909,0.2909,0.2908,0,0.293,0.2936,0.2949,0.2949,0.2943,0.2949,0.2947,0.2944,0.2947,0.2948,0.295,0.2953,0.2955,0.2957,0.2948,0.2936,0.2964,0.2945,0.2962,0.2962,0.297,0.297,0.3019,0.2969,0.2969,0.2969,0.2968,0,0.2967,0.298,0.2965,0.2973,0.2987,0.2974,0.2989,0.2985,0.2982,0.299,0.2974,0.2982,0.2968,0.2974,0.2966,0.298,0.2981,0.2978,0.2976,0.2981,0.2981,0.2984,0.2982,0.297,0.297,0.2969,0.2969,0,0.3011,0.3001,0.3014,0.3006,0.3005,0.3016,0.301,0.3017,0.3011,0.302,0.3021,0.3012,0.3018,0.3008,0.3013,0.3008,0.3027,0.3021,0.3028,0.3027,0.3044,0.3044,0.3099,0.3106,0.3049,0.305,0.305,0,0.3036,0.3046,0.3039,0.3043,0.3042,0.3048,0.305,0.3037,0.304,0.3039,0.3047,0.3051,0.3055,0.3065,0.3059,0.3063,0.3058,0.3077,0.3059,0.3063,0.306,0.306,0.3062,0.3081,0.3082,0.3083,0.3083,0,0.3083,0.3078,0.3082,0.3084,0.3087,0.3088,0.3089,0.3092,0.3079,0.3083,0.3089,0.3092,0.3097,0.3102,0.3104,0.3102,0.3091,0.3089,0.3093,0.3098,0.3103,0.3102,0.304,0.3088,0.3087,0.3087,0.3087,0.3087,0.312,0.3128,0.3125,0.313,0.3128,0.3128,0.3135,0.3129,0.3134,0.3137,0.3129,0.3137,0.3134,0.3136,0.3135,0.3142,0.3134,0.3139,0.3141,0.3143,0.3147,0.31,0.3142,0.3142,0.3142,0.3141,0.3141,0,0.3168,0.3164,0.3169,0.3169,0.3173,0.3161,0.316,0.3165,0.3172,0.3171,0.3174,0.3181,0.3186,0.3179,0.3183,0.319,0.3185,0.3192,0.3192,0.3192,0.3153,0.315,0.3196,0.3196,0.3196,0.3196,0.3196,0.3196,0.3193,0.3206,0.32,0.3213,0.3209,0.3217,0.3218,0.3218,0.3217,0.3226,0.323,0.3225,0.3222,0.3225,0.3229,0.3227,0.323,0.3239,0.3235,0.32,0.3194,0.3189,0.3186,0.3239,0.3239,0.3274,0.3274,0.3274]},{"header":{"parameterUnit":"m.s-1","parameterCategory":1,"la1":30.2991,"la2":30.254,"lo1":-89.0895,"lo2":-89.0444,"dy":0.0017,"dx":0.0017,"nx":28,"ny":28,"refTime":"2024-07-04T21:00:00:Z","depth":0,"parameterNumber":3,"parameterNumberName":"V-component_of_WINDS"},"data":[0,0,0,0,0,0,0,0,0,0,0,0,0,0,0,0,0,0,0,0,0,0,0,0,0,0,0,0,0,0,0,0,0,0,0,0,0,0,0,0,0,0,0,0,0,0,0,0,0,0,0,0,0,0,0,0,0,0,1.2455,1.2456,0,1.2531,1.2532,1.2532,1.2532,1.2531,1.253,1.2529,1.2604,1.2607,1.2609,0,0,0,0,0,0,0,0,0,0,0,0,0,1.2305,1.2307,1.2455,1.2456,1.2457,1.2531,1.2532,1.2533,1.2532,1.2531,1.253,1.2529,1.2603,1.2606,1.261,0,0,0,0,0,0,0,0,0,0,0,0,0,1.2374,1.2308,1.2455,1.2466,1.2468,1.253,1.2532,1.2533,1.2533,1.2531,1.253,1.2528,1.2602,1.2606,1.261,1.2666,0,0,1.2623,1.2625,0,0,0,0,0,0,0,0,1.237,1.2379,1.2463,1.2465,1.2467,1.2521,1.2506,1.2578,1.2533,1.2508,1.2529,1.2528,1.2577,1.2583,1.2601,1.267,1.2673,1.2624,1.2626,1.2628,1.263,0,0,0,0,0,0,0,1.2365,1.2376,1.2485,1.2464,1.2467,1.2465,1.2473,1.2519,1.255,1.251,1.251,1.2519,1.2578,1.2596,1.2602,1.2674,1.2624,1.2628,1.263,1.2632,1.2787,1.2789,0,0,0,0,0,0,1.2359,1.2372,1.2483,1.2487,1.2414,1.2469,1.2478,1.2505,1.2549,1.2555,1.252,1.2519,1.259,1.2597,1.2605,1.267,1.2628,1.2632,1.2635,1.2786,1.2788,1.2789,0,0,0,0,0,0,1.2356,1.2369,1.248,1.243,1.2444,1.2473,1.2503,1.2507,1.2526,1.2557,1.2562,1.2534,1.2589,1.2599,1.265,1.2673,1.2634,1.2638,1.2784,1.2787,1.2789,1.2803,0,0,0,0,0,0,1.2351,1.2368,1.2391,1.243,1.2446,1.2525,1.2505,1.251,1.2534,1.2532,1.2571,1.2576,1.2589,1.2644,1.2654,1.2678,1.2642,1.2782,1.2785,1.2788,1.2801,1.2805,1.281,0,0,0,0,0,1.2346,1.2393,1.2392,1.2406,1.2477,1.2527,1.2536,1.255,1.2536,1.2558,1.2577,1.2575,1.2669,1.2649,1.2661,1.2686,1.2781,1.2784,1.2788,1.2798,1.2804,1.281,0,0,0,0,0,0,1.2355,1.2398,1.2398,1.2459,1.2489,1.2527,1.2556,1.2556,1.259,1.2588,1.2602,1.2611,1.2661,1.2679,1.2656,1.274,1.2723,1.2729,1.2727,1.2733,1.2737,1.2731,1.2645,0,0,0,0,0,1.2364,1.2403,1.2438,1.2488,1.2503,1.2527,1.2549,1.2557,1.2588,1.2601,1.2624,1.2653,1.2689,1.2712,1.2747,1.2803,1.2809,1.2826,1.2831,1.2834,1.2839,1.2865,1.2872,1.2801,1.2801,1.2801,0,0,1.2384,1.2412,1.2436,1.2491,1.2515,1.2552,1.2537,1.2579,1.2605,1.2607,1.2656,1.2673,1.2707,1.2759,1.2784,1.2776,1.286,1.2839,1.2841,1.2844,1.287,1.2876,1.2882,1.2803,1.2803,1.2802,0,0,1.2437,1.2464,1.2507,1.2531,1.2567,1.2582,1.2592,1.2628,1.264,1.269,1.269,1.2721,1.2783,1.2806,1.2825,1.2882,1.288,1.2893,1.2916,1.2942,1.2948,1.2953,1.297,1.2976,1.2898,1.2898,1.2898,0,1.2457,1.2514,1.2529,1.2569,1.2591,1.2593,1.2635,1.2657,1.2703,1.2717,1.2708,1.2782,1.2806,1.2861,1.2875,1.2892,1.2901,1.2889,1.2946,1.2951,1.2956,1.2972,1.2979,1.2899,1.2899,1.2899,1.2899,0,1.2534,1.2573,1.2603,1.2646,1.2672,1.2713,1.2731,1.2755,1.2759,1.2774,1.2821,1.2849,1.2887,1.2901,1.2907,1.2956,1.295,1.2943,1.2926,1.2964,1.2979,1.2986,1.2901,1.29,1.29,1.29,0,0,1.2597,1.2645,1.2655,1.2673,1.2711,1.2741,1.278,1.2817,1.2836,1.2867,1.2897,1.2948,1.294,1.2962,1.297,1.2993,1.3031,1.2983,1.2984,1.2988,1.3084,1.3087,1.3094,1.3031,1.3032,1.3033,1.308,0,1.2652,1.2722,1.2734,1.2794,1.2828,1.2829,1.2863,1.2888,1.2902,1.2931,1.2946,1.2981,1.2971,1.2983,1.3006,1.3022,1.305,1.3019,1.3057,1.3058,1.3046,1.3103,1.3107,1.315,1.3086,1.3087,1.3088,0,1.2726,1.2757,1.2821,1.2851,1.2865,1.2895,1.2928,1.2957,1.2985,1.2993,1.3016,1.3019,1.3056,1.3038,1.3087,1.3065,1.3081,1.3091,1.3093,1.3096,1.3074,1.3104,1.3165,1.317,1.3098,1.3098,1.3097,0,1.2761,1.2819,1.2863,1.2879,1.2916,1.2936,1.2952,1.2979,1.2999,1.3027,1.304,1.3072,1.3089,1.3113,1.3124,1.311,1.3171,1.3154,1.3176,1.3176,1.3188,1.3187,1.325,1.3202,1.3202,1.3202,1.3202,0,1.282,1.2858,1.2879,1.2906,1.2947,1.296,1.2999,1.3015,1.3037,1.3065,1.3069,1.3094,1.3109,1.3136,1.3145,1.3182,1.319,1.3196,1.3197,1.3194,1.3193,1.3204,1.32,1.3204,1.3203,1.3203,1.3203,0,1.2866,1.2882,1.293,1.296,1.2968,1.2997,1.3022,1.3046,1.3059,1.3094,1.3103,1.3123,1.3154,1.3168,1.3207,1.3213,1.3255,1.3255,1.3245,1.3245,1.3265,1.3262,1.3335,1.3344,1.3293,1.3293,1.3294,0,1.2902,1.293,1.2963,1.2982,1.2998,1.303,1.3049,1.3062,1.3082,1.3113,1.3133,1.3165,1.3191,1.3241,1.3258,1.3287,1.3286,1.331,1.3291,1.3285,1.3283,1.328,1.3282,1.3313,1.3313,1.3314,1.3314,0,1.2962,1.2967,1.2997,1.3028,1.3051,1.3077,1.3101,1.3116,1.3131,1.3153,1.3186,1.3206,1.3245,1.3275,1.3304,1.3318,1.3318,1.332,1.3326,1.3322,1.3314,1.3316,1.3252,1.3318,1.3318,1.3317,1.3317,1.3317,1.3001,1.3025,1.3051,1.3082,1.3102,1.3123,1.3147,1.3162,1.3189,1.3222,1.3227,1.3261,1.3284,1.3323,1.3338,1.3363,1.3357,1.3366,1.3368,1.337,1.337,1.3312,1.3368,1.3368,1.3368,1.3368,1.3368,0,1.3059,1.3075,1.3103,1.3136,1.316,1.3158,1.3184,1.3203,1.3233,1.3255,1.328,1.3315,1.3343,1.3361,1.3389,1.3405,1.3405,1.3412,1.341,1.3412,1.3375,1.3366,1.3411,1.3411,1.3411,1.3411,1.3411,1.3411,1.3091,1.3131,1.3139,1.3186,1.3201,1.3234,1.3249,1.3268,1.3285,1.3324,1.3347,1.3359,1.3378,1.3407,1.3432,1.3436,1.3445,1.3452,1.3455,1.342,1.3415,1.3411,1.3402,1.3454,1.3454,1.349,1.349,1.349]}]]